www.pogodaiklimat.ru

Погода и климат >> Архив погоды >> Украина >> Очаков


ПОГОДА в Очакове

  • Прогноз погоды в Очакове
  • Монитор погоды в Очакове

АРХИВ ПОГОДЫ в Очакове

Время (UTC), дата Ветер
(напр.,м/с)
 
Видим.   Явления Облачность Т
(С)
Тd
(С)
f
(%)
Тe
(С)
Тes
(С)
Комфортность P
(гПа)
Po
(гПа)
Тmin
(С)
Tmax
(С)
R
(мм)
R24
(мм)
S
(см)
12 10.08 ЮЗ 4 20 км 3/3 600 м
[Cu med, cong]
+27.4 +16.9 53 +31 +37 душно 1014.8 1010.7
15 10.08 З 3 20 км 3/3 600 м
[Cu med, cong]
+27.3 +19.0 61 +33 +34 очень
душно
1014.6 1010.5
18 10.08 З 2 28 км 4/0
[Ci sp]
+24.8 +19.2 71 +30 +30 душно 1015.5 1011.4 +29.8
21 10.08 С 1 25 км 3/0
[Ci sp]
+21.9 +18.4 81 +27 +27 душно 1016.7 1012.5
00 11.08 С 1 25 км ясно +17.8 +13.2 74 +19 +19 1016.9 1012.7
06 11.08 В 2 20 км ясно +23.3 +16.1 64 +28 +34 душно 1018.1 1013.9 +16.5
12 11.08 ЮЗ 2 20 км 6/4 600 м
[Sc Ci sp]
+27.6 +17.5 54 +32 +39 очень
душно
1017.4 1013.3
18 11.08 ЮЗ 2 30 км ясно +24.5 +20.2 77 +30 +30 очень
душно
1017.2 1013.0 +29.5
00 12.08 З 2 15 км ясно +23.2 +20.6 85 +31 +31 очень
душно
1017.0 1012.8
06 12.08 С 1 20 км ясно +23.9 +18.4 71 +28 +36 душно 1017.2 1013.1 +21.7
12 12.08 З 2 20 км 1/1 600 м
[Cu hum]
+29.3 +20.9 61 +37 +48 очень
душно
1017.2 1013.1
15 12.08 З 2 20 км ясно +28.5 +19.5 58 +34 +37 очень
душно
1016.3 1012.2
18 12.08 З 2 30 км ясно +24.8 +21.5 82 +32 +32 очень
душно
1016.6 1012.5 +32.0
21 12.08 ЮЗ 1 20 км ясно +23.9 +20.8 83 +30 +30 очень
душно
1016.7 1012.6
00 13.08 З 1 18 км ясно +22.8 +20.2 85 +29 +29 очень
душно
1016.4 1012.2
03 13.08 ЮЗ 2 8000 м дымка ясно +22.6 +21.7 95 +30 +30 очень
душно
1016.7 1012.5
06 13.08 Ю 1 20 км ясно +25.4 +21.7 80 +33 +40 очень
душно
1016.8 1012.7 +22.3
09 13.08 Ю 2 20 км ясно +27.6 +18.1 56 +32 +47 очень
душно
1017.0 1012.9
12 13.08 Ю 3 20 км ясно +28.3 +19.6 59 +34 +44 очень
душно
1016.5 1012.4
15 13.08 З 3 20 км ясно +27.6 +18.1 56 +32 +34 очень
душно
1015.1 1011.0
18 13.08 ЮЗ 1 28 км ясно +25.3 +20.0 72 +31 +31 очень
душно
1014.8 1010.7 +30.0
21 13.08 ЮВ 3 3000 м ясно +24.5 +14.6 54 +27 +27 жарко 1015.1 1011.0
00 14.08 В 2 30 км ясно +19.6 +14.2 71 +22 +22 комфорт 1014.5 1010.3
03 14.08 В 1 20 км ясно +21.0 +15.1 69 +25 +25 комфорт 1014.1 1009.9
06 14.08 В 5 20 км ясно +25.4 +13.9 49 +28 +31 жарко 1013.3 1009.2 +19.3
09 14.08 В 5 20 км ясно +29.0 +11.5 34 +30 +37 жарко 1012.3 1008.2
12 14.08 ЮВ 5 20 км ясно +32.3 +11.5 28 +32 +39 жарко 1010.0 1006.0
15 14.08 В 5 20 км ясно +32.8 +10.5 25 +32 +33 жарко 1008.7 1004.7
18 14.08 Ю 1 30 км ясно +26.4 +18.2 61 +31 +31 душно 1008.2 1004.1 +33.4
21 14.08 В 4 30 км ясно +25.1 +15.8 56 +28 +28 жарко 1007.5 1003.4
00 15.08 СВ 1 30 км 8/0
[Ci sp]
+18.8 +11.8 64 +21 +21 комфорт 1007.8 1003.6
03 15.08 штиль 0 20 км 9/6 600 м
[Sc Ac trans Ci sp]
+17.3 +13.0 76 +17 +17 1007.6 1003.4
06 15.08 СВ 1 20 км 9/8 600 м
[Sc Ci sp]
+21.5 +14.7 65 +25 +26 комфорт 1007.4 1003.3 +16.9
12 15.08 ЮЗ 2 20 км 10/10 600 м
[Sc]
+25.4 +16.3 57 +29 +29 душно 1007.8 1003.7
18 15.08 СЗ 4 30 км 4/0
[Ci sp]
+24.6 +16.9 62 +28 +28 душно 1008.0 1003.9 +28.8
00 16.08 СЗ 5 30 км ясно +18.3 +12.4 68 +18 +18 1009.8 1005.6
06 16.08 С 4 20 км 8/0
[Ac trans Ci sp]
+19.5 +13.9 70 +21 +24 комфорт 1010.7 1006.5 +16.3
12 16.08 С 3 20 км 9/8 600 м
[Sc Ci sp]
+24.2 +13.8 52 +26 +28 жарко 1010.2 1006.1
18 16.08 С 2 30 км 3/3 600 м
[Sc]
+21.9 +12.4 55 +24 +24 комфорт 1011.8 1007.6 +26.9
00 17.08 С 2 25 км 3/0
[Ci sp]
+16.9 +12.6 76 +17 +17 1012.5 1008.3
06 17.08 С 3 20 км ясно +18.8 +12.0 65 +20 +25 1013.1 1008.9 +14.6

 

Местоположение метеостанции Очаков (Николаевская область, Украина): широта 46.63 долгота 31.55 высота над уровнем моря 41 м.

В архиве по умолчанию представлена погода в Очакове за последнюю неделю. Архивные данные за месяц целиком и за предыдущие месяцы, начиная с января 2011 года, Вы можете получить, выбрав интересующий диапазон дат из раскрывающегося списка и нажав кнопку "Ввод!".


*Определитесь, кто Вы:
робот инопланетянин человек

Внимание! Время в таблицах - всемирное. Для получения местного времени необходимо прибавить поправку, которая равна 2 ч.

Смотрите также архив погоды в соседних городах и на ближайших метеорологических станциях:

Погода в Николаеве (Николаевская область, Украина) (54 км)
Погода в Одессе (Одесская область, Украина) (64 км)
Погода в Ильичевске (Одесская область, Украина) (70 км)
Погода в Бехтерах (Херсонская область, Украина) (71 км)
Погода в Сербке (Одесская область, Украина) (75 км)
Погода в Херсоне (Херсонская область, Украина) (78 км)
Погода в Белгород-Днестровском (Одесская область, Украина) (103 км)
Погода в Вознесенске (Николаевская область, Украина) (106 км)
Погода в Баштанке (Николаевская область, Украина) (112 км)
Погода в Раздельной (Одесская область, Украина) (115 км)

Пояснения к столбцам:

Ветер - указаны скорость ветра в м/с - средняя за 10 мин, порывы в срок и между сроками (в фигурных скобках) и направление, откуда дует ветер: С - северный, СВ - северо-восточный, В - восточный, ЮВ - юго-восточный, Ю - южный, ЮЗ - юго-западный, З - западный, СЗ - северо-западный.
Видимость - горизонтальная дальность видимости в метрах или километрах. При видимости от 1 до 10 км при отсутствии осадков обычно наблюдается дымка, при ухудшении видимости до 1 км и менее - туман. В сухую погоду видимость может ухудшаться дымом, пылью или мглою.
Явления - указаны атмосферные явления, наблюдавшиеся в срок или в последний час перед сроком; фигурными скобками обозначены явления, наблюдавшиеся между сроками (за 1-3 часа до срока); квадратными скобками обозначены град или гололедные отложения с указанием их диаметра в мм.
Облачность - указаны через наклонную черту общая и нижняя облачность в баллах и высота нижней границы облаков в метрах; квадратными скобками обозначены формы облаков: Ci - перистые, Cs - перисто-слоистые, Cc - перисто-кучевые, Ac - высококучевые, As - высокослоистые, Sc - слоисто-кучевые, Ns - слоисто-дождевые, Cu - кучевые, Cb - кучево-дождевые. Подробнее классификацию облаков см. в Атласе облаков (PDF).
T - Температура воздуха - температура, измеренная на высоте 2 м над землей.
Td - Температура точки росы - температура, при понижении до которой содержащийся в воздухе водяной пар достигнет насыщения.
f - Относительная влажность воздуха - влажноcть воздуха, измеренная на высоте 2 м над землей.
Te - Эффективная температура - температура, которую ощущает одетый по сезону человек в тени. Характеристика душности погоды. При расчете учитывается влияние влажности воздуха и скорости ветра на теплоощущения человека.
Tes - Эффективная температура на солнце - температура, которую ощущает человек, с поправкой на солнечный нагрев. Характеристика знойности погоды. Зависит от высоты солнца над горизонтом, облачности и скорости ветра. Ночью, в пасмурную погоду, а также при ветре 12 м/с и более поправка равна нулю.
P - Атмосферное давление - приведенное к уровню моря атмосферное давление.
Po - Атмосферное давление - измеренное на уровне метеостанции атмосферное давление.
Tmin - Минимальная температура - минимум температуры воздуха на высоте 2 м над землей.
Tmax - Максимальная температура - максимум температуры воздуха на высоте 2 м над землей.
R - Количество осадков - Количество выпавших осадков за период времени, мм. При наведении курсора мыши на число - период времени, за который выпало указанное количество осадков.
R24 - Количество осадков - Количество выпавших осадков за 24 часа, мм.
S - Снежный покров - Высота снежного покрова, см. При наведении курсора мыши на число - состояние снежного покрова и степень покрытия местности в баллах.